Location: OLV Amersfoort
(52.1552°N, 5.3872°E)
Time: 22:57:02
(UTC+02:00)

ISS - Visible Passes

Search period start: 19 April 2014 00:00
Search period end: 29 April 2014 00:00
Orbit: 414 x 419 km, 51.6° (Epoch: 19 April)

Date Brightness Start Highest point End Pass type
(mag) Time Alt. Az. Time Alt. Az. Time Alt. Az.
19 Apr -2.0 22:03:10 10° W 22:06:10 30° SSW 22:08:03 18° SSE visible
20 Apr -0.7 22:52:50 10° WSW 22:53:54 11° SW 22:54:26 11° SSW visible
21 Apr -1.0 22:03:27 10° WSW 22:05:39 16° SW 22:07:50 10° S visible
